Wind_Speed
10 10 9 9 8 8 8 8 7 7 7 6 6 6 6 6 6 6 6 6 6 6 6 6 6 7 7 8 8 9 10 11 13 15 15 12 7 3 5 2 2 2 3 2 1 2 4 3 2 2 3 2 2 2 2 1 1 1 2 3 0 3 3 4 5 2 1 4 5 6 4 3 4 4 4 4 6 11 16 24 25 23 23 22 21 19 18 17
10 10 10 9 9 9 8 8 8 8 7 7 7 7 7 6 6 6 6 6 6 7 7 7 7 7 8 8 9 10 11 12 15 13 9 5 3 8 7 4 3 3 3 2 1 3 5 3 1 2 3 2 1 1 2 2 2 2 3 2 3 5 5 5 4 3 1 4 6 6 5 4 6 7 6 3 7 11 13 24 29 27 26 22 19 17 16 17
11 10 10 10 9 9 9 8 8 8 8 8 7 7 7 7 7 7 7 7 8 8 8 8 9 9 9 9 10 10 11 15 13 4 4 6 9 9 5 3 5 5 3 3 2 4 6 3 2 2 1 0 0 2 2 3 4 2 3 1 6 7 5 8 8 7 4 5 6 7 8 9 11 10 7 5 9 10 10 18 23 25 28 26 23 21 20 20
11 11 11 10 10 10 9 8 8 8 8 8 8 8 8 8 8 8 8 9 9 9 10 10 10 10 10 10 10 10 12 14 5 6 6 6 7 3 3 6 7 6 5 4 3 4 6 4 3 3 2 1 1 3 3 5 4 3 4 4 6 4 3 10 12 11 9 8 8 11 11 12 14 12 10 9 8 7 13 19 20 25 31 30 27 25 24 23
11 11 11 10 10 10 9 9 9 9 9 8 8 8 9 9 9 10 10 10 10 10 10 10 11 10 11 11 10 11 10 7 2 6 4 3 1 5 7 9 8 7 6 5 4 5 6 5 5 4 3 2 2 2 4 7 7 3 5 8 8 4 3 10 12 11 13 13 14 12 9 10 12 13 13 10 6 10 18 23 23 27 30 28 26 24 23 23
12 12 11 11 11 10 10 10 10 9 9 9 9 10 10 10 10 10 11 11 11 11 11 11 11 11 12 12 12 11 7 2 4 5 5 5 8 10 9 10 9 8 6 5 5 5 6 6 6 6 4 2 3 4 3 5 8 4 5 7 11 11 8 12 13 13 15 14 13 10 8 11 11 13 15 12 16 22 26 26 25 26 25 23 23 22 22 21
13 13 12 12 11 11 11 11 11 10 10 10 11 11 11 11 11 11 12 12 12 12 12 13 13 13 13 13 13 11 9 10 9 8 10 11 12 10 9 10 9 7 4 5 6 6 6 7 8 5 3 1 2 5 4 3 7 7 5 5 9 11 10 14 14 15 17 16 17 14 13 14 11 11 13 18 28 28 25 24 23 23 23 22 21 21 21 20
14 13 13 13 12 12 12 11 11 11 11 11 11 12 12 12 13 13 13 13 14 13 14 14 14 14 13 13 12 9 12 14 10 9 12 12 12 9 9 9 6 5 4 6 7 7 6 6 7 5 3 2 2 4 3 3 3 6 4 5 7 9 10 14 16 20 21 21 22 17 15 19 17 12 12 23 29 22 19 22 22 21 21 20 19 18 17 16
14 14 13 13 13 12 12 12 12 12 12 12 12 13 13 14 14 14 14 14 14 13 14 14 14 14 12 12 9 7 10 10 6 6 8 9 10 10 10 9 5 4 5 8 8 8 7 5 5 4 3 3 2 2 3 2 1 4 4 4 7 10 14 17 19 23 21 22 21 13 15 22 18 9 11 22 20 16 19 20 18 18 18 17 15 13 12 12
14 13 13 13 13 12 12 12 12 12 13 13 13 14 14 14 14 14 14 14 14 13 13 13 14 13 12 10 6 5 8 7 5 5 5 7 9 11 11 10 7 5 6 9 10 10 9 6 4 3 3 2 1 3 2 1 1 3 4 8 10 12 17 18 19 25 23 20 18 10 12 18 11 1 7 15 13 16 21 19 17 17 16 14 11 10 10 10
14 14 13 13 13 13 13 13 13 13 13 13 13 13 13 13 13 13 14 13 13 13 12 13 13 12 12 10 9 8 9 8 7 7 6 7 9 11 11 9 8 7 7 9 11 12 10 9 6 3 3 1 1 4 3 1 2 5 7 10 12 12 18 20 17 20 16 9 8 7 8 10 3 3 9 14 12 16 21 21 18 16 14 10 8 7 7 8
14 14 14 14 13 14 13 13 13 13 13 13 12 12 12 12 12 13 13 13 12 12 12 12 12 12 11 11 14 14 13 11 11 10 9 10 10 11 10 9 10 10 10 11 11 12 11 11 8 5 4 2 0 3 2 3 6 8 6 5 9 8 11 18 12 9 5 2 3 5 2 7 1 8 13 14 13 15 20 21 18 16 12 8 6 5 3 3
15 15 14 14 14 14 13 13 12 12 12 11 11 11 11 11 11 11 12 12 12 11 11 11 11 11 10 11 13 12 11 11 11 11 12 13 13 13 12 12 13 11 11 12 12 13 13 12 10 8 6 4 1 1 3 6 8 8 3 1 5 6 6 10 4 2 2 3 5 8 0 7 6 13 15 12 13 15 20 20 17 16 11 6 4 3 3 2
16 16 15 14 14 13 13 12 12 11 11 11 10 10 10 10 10 11 11 10 11 10 10 10 10 10 10 10 11 11 11 11 11 12 13 15 15 14 14 13 12 10 9 11 12 12 12 11 10 8 5 5 3 1 3 6 5 3 1 1 2 2 4 9 6 2 3 4 7 9 2 6 8 14 14 12 14 15 19 17 16 13 8 6 5 6 5 5
16 16 15 14 13 13 12 11 11 11 10 10 9 9 9 10 10 10 9 10 10 10 10 10 9 8 9 11 11 11 11 12 12 12 13 13 13 12 11 10 9 9 9 10 11 11 10 9 8 6 3 3 1 1 3 4 3 2 0 3 3 2 4 12 11 3 2 2 5 8 2 5 8 13 15 16 16 15 15 14 13 8 7 7 7 9 8 8
17 15 15 14 13 12 12 11 10 10 9 9 8 8 9 9 9 9 10 10 10 11 10 9 10 8 7 9 9 9 9 9 9 9 11 11 11 8 7 7 7 8 9 9 10 10 9 7 5 3 2 2 2 4 4 4 4 3 1 3 2 3 2 7 8 1 4 2 2 3 2 4 6 10 16 21 21 17 14 12 9 7 8 9 9 10 9 9
16 15 14 14 13 12 11 10 10 9 9 8 8 8 9 9 9 10 10 11 11 11 10 9 9 8 8 10 9 8 8 8 8 9 9 8 8 6 5 6 7 8 8 8 8 7 6 5 4 2 0 1 3 5 3 2 4 4 0 2 3 4 3 3 6 5 4 4 0 2 2 5 8 12 23 26 23 20 13 10 9 10 10 11 11 11 11 10
15 15 15 14 12 11 10 10 9 9 9 8 8 8 8 9 10 11 12 12 11 8 8 9 7 3 8 12 9 6 6 8 8 9 8 8 7 6 6 6 6 8 7 5 5 5 5 3 4 1 2 2 2 5 2 4 5 4 3 3 3 3 3 4 5 4 5 5 3 4 4 8 9 12 22 22 19 18 11 9 10 11 12 12 13 14 14 14
16 15 14 12 11 11 11 10 10 9 8 7 8 8 8 9 9 10 12 12 9 5 3 7 10 3 2 6 6 5 5 7 8 9 9 8 7 7 7 6 6 7 6 4 3 5 6 4 4 1 1 3 5 7 8 9 7 6 5 4 3 4 5 5 5 5 3 4 5 6 6 7 8 10 14 16 13 8 3 9 12 13 15 15 16 17 17 18
16 15 13 12 11 11 11 10 9 8 7 6 7 7 7 7 5 5 9 12 13 11 8 8 11 11 6 4 6 7 6 7 9 10 10 9 9 9 8 7 7 5 4 4 3 3 6 4 2 5 6 9 10 11 10 6 3 3 2 2 4 5 6 5 6 7 1 1 6 6 4 5 8 9 10 13 9 7 10 12 15 15 16 17 18 19 19 20
16 15 13 12 12 12 10 9 8 8 7 6 6 5 5 4 2 3 6 10 14 16 16 16 16 18 16 12 11 10 7 9 11 11 11 11 11 9 8 7 5 2 2 4 4 2 4 3 6 10 11 11 8 7 7 4 2 2 3 3 5 5 6 6 6 7 1 2 5 3 2 7 9 7 8 9 7 9 10 14 15 16 17 17 18 20 20 21
17 15 13 13 12 11 10 9 8 8 7 7 6 5 6 6 5 5 6 8 14 16 17 19 20 22 22 19 17 14 10 9 11 13 13 14 13 10 9 7 4 3 3 4 5 3 2 3 11 15 10 5 2 3 6 4 4 3 2 2 4 4 4 6 5 5 1 3 4 3 2 8 8 3 8 9 9 10 12 15 15 16 17 17 18 19 20 22
17 15 14 13 12 11 10 9 8 8 8 7 7 7 6 5 5 5 5 6 12 15 16 18 21 23 23 21 20 19 16 12 10 14 15 15 15 12 11 8 4 3 4 4 6 4 3 6 14 16 7 2 5 3 6 3 2 3 4 3 4 4 1 4 5 4 2 1 3 3 3 7 5 3 7 9 12 15 17 18 17 18 19 18 17 19 20 23
16 15 14 13 12 11 10 9 8 8 9 9 8 7 5 4 4 4 4 4 7 11 13 16 17 17 20 19 17 19 19 14 9 12 16 17 16 12 10 10 6 4 5 8 9 7 7 9 8 6 5 5 6 6 3 4 2 4 6 6 5 4 5 5 4 4 4 4 2 3 4 5 5 2 3 7 11 14 15 17 18 17 18 18 19 20 22 23
17 16 15 14 12 10 9 8 8 8 9 9 9 7 5 3 2 2 3 2 4 7 7 9 10 10 13 14 13 14 14 12 9 10 15 19 18 10 7 10 7 4 7 7 7 6 8 10 3 4 4 6 6 6 4 6 2 4 5 9 9 7 7 4 1 4 4 4 3 3 3 5 5 2 4 5 5 8 10 13 14 14 16 18 19 21 22 24
18 17 15 14 10 9 9 8 7 8 9 9 9 7 5 3 1 2 2 2 2 5 3 5 6 6 8 9 10 11 6 7 10 12 16 20 19 11 4 6 6 5 6 6 3 2 6 8 4 5 5 6 5 6 5 7 4 3 5 7 7 5 4 4 3 3 1 3 3 3 1 5 6 3 4 6 4 5 6 8 10 13 14 16 18 19 21 23
19 18 14 12 11 11 11 8 7 10 9 8 8 7 5 3 3 2 2 2 3 3 4 4 5 5 6 10 14 11 3 4 8 12 17 19 17 11 5 3 3 3 4 5 1 2 5 5 3 5 5 5 5 5 6 7 6 3 4 4 6 6 5 5 5 2 3 2 4 2 2 3 5 4 5 8 7 4 4 5 7 11 13 14 16 18 20 22
19 17 15 14 14 15 13 9 9 11 9 7 8 8 5 4 4 3 3 2 2 3 4 3 4 5 7 13 14 8 4 7 6 7 15 17 13 8 4 5 5 4 3 5 4 4 2 3 4 6 5 4 6 5 7 9 5 6 5 6 6 6 5 4 5 2 1 1 5 4 1 2 5 4 2 6 5 4 5 4 4 9 11 13 15 16 19 21
19 18 17 16 15 16 16 14 13 12 9 7 9 8 5 6 4 4 2 2 1 3 2 3 5 6 9 12 8 4 5 4 2 6 12 12 11 5 1 4 5 2 1 3 5 4 1 2 4 7 5 5 6 3 4 7 4 4 5 5 5 5 5 4 5 3 2 1 5 6 3 2 5 4 2 4 4 4 5 4 5 9 11 12 14 16 18 20
22 20 20 18 17 19 20 20 17 13 11 10 11 9 8 7 4 2 4 4 0 2 3 5 5 6 9 7 2 1 3 1 3 8 8 6 8 4 2 2 2 2 2 3 1 4 1 1 1 3 4 5 5 2 1 2 3 5 6 5 6 5 4 4 2 4 2 3 6 8 8 6 4 4 3 3 3 4 8 6 6 10 13 14 14 15 18 19
24 23 22 22 22 21 22 24 21 16 15 14 14 13 10 5 2 4 6 1 1 1 4 3 2 5 8 5 3 2 2 1 4 8 4 2 4 2 2 2 2 3 3 4 3 5 4 1 2 2 3 4 7 4 3 4 3 5 5 4 3 4 4 4 4 3 1 5 6 6 6 6 4 4 2 3 5 2 9 10 10 12 15 16 16 16 18 19
26 25 24 24 25 23 24 26 21 18 20 19 19 17 10 2 3 4 3 2 1 3 4 3 2 4 6 4 3 4 3 2 3 5 3 3 3 3 3 4 4 2 2 4 2 4 3 4 3 2 2 5 6 4 3 5 5 5 4 5 3 2 3 3 3 0 3 6 4 2 5 2 5 3 2 4 7 6 5 14 16 18 20 19 18 18 19 19
28 27 25 25 25 25 25 24 21 22 24 23 22 16 7 3 5 4 4 2 1 2 3 3 3 5 6 4 2 4 3 2 4 3 2 3 3 4 4 3 5 3 1 4 2 1 3 5 3 1 2 6 8 5 2 1 1 4 4 4 4 2 1 3 4 2 4 5 3 2 4 2 4 1 3 4 7 6 6 18 21 22 23 22 21 20 19 20
29 27 26 25 24 25 24 25 25 24 26 27 20 10 5 6 4 3 6 6 1 1 2 2 4 5 5 4 3 4 3 2 5 3 2 3 2 3 5 5 5 2 2 3 2 4 2 4 3 4 2 6 8 6 6 5 3 4 4 5 5 4 4 4 4 3 4 5 3 2 2 2 3 1 3 3 5 6 13 20 21 22 23 22 20 19 19 19
27 26 27 26 26 27 26 27 25 21 26 28 14 5 7 6 2 3 5 5 1 1 1 2 4 5 2 2 2 4 3 2 4 4 2 3 3 4 4 5 6 4 3 3 2 3 3 5 6 2 1 7 7 4 6 6 2 2 3 4 2 4 4 2 4 5 3 3 4 2 2 3 3 1 3 4 7 8 12 16 18 19 19 19 19 19 18 17
28 27 26 26 28 30 27 26 21 19 26 23 8 5 8 3 3 4 3 4 4 4 4 2 3 4 3 1 1 3 2 1 4 3 2 3 3 4 4 4 6 8 6 5 3 2 3 4 5 2 1 3 3 2 4 3 2 2 2 3 4 4 5 2 3 1 3 2 4 2 2 2 0 1 2 4 5 5 6 10 15 17 18 19 19 19 18 17
27 26 26 27 28 27 25 24 20 21 25 17 6 6 4 0 4 4 1 3 4 5 6 3 2 4 4 2 3 5 3 2 3 3 2 2 2 5 5 3 5 10 10 6 2 3 4 3 5 1 2 1 1 3 4 3 3 5 3 5 3 1 4 4 1 2 2 3 4 2 4 3 1 2 1 1 2 3 4 6 10 14 17 18 19 18 18 17
25 25 27 28 27 24 24 24 22 24 21 10 7 6 2 2 4 4 3 4 3 4 5 4 4 4 5 4 3 4 4 3 4 4 3 2 3 5 6 3 3 8 12 7 1 2 4 1 6 1 3 2 2 4 2 4 3 4 3 3 3 2 1 1 2 2 2 4 4 4 5 4 4 4 3 6 9 8 7 6 8 12 17 19 18 19 18 17
25 23 21 23 25 23 23 23 24 25 15 5 7 7 2 3 4 6 8 6 3 3 4 4 3 2 3 5 3 4 5 5 5 4 3 3 3 3 5 3 3 2 6 8 4 2 3 2 4 2 1 1 3 2 3 2 2 3 2 0 1 2 4 2 2 3 2 3 4 5 5 4 5 5 8 11 12 11 10 8 8 14 19 20 21 21 20 18
24 16 10 19 24 22 22 24 24 20 9 3 5 4 2 3 4 8 12 8 3 2 3 3 3 3 3 3 2 2 3 4 5 4 3 3 3 2 1 1 2 1 0 4 4 0 2 3 3 3 2 1 2 3 6 6 3 2 2 1 1 1 1 1 1 3 3 3 3 4 5 5 4 2 6 10 9 12 13 11 10 16 20 22 23 23 20 18
23 9 5 19 25 23 24 21 15 10 4 3 3 2 3 4 4 7 10 9 4 2 3 3 4 4 4 3 2 1 2 2 4 3 2 3 2 1 1 1 3 3 2 3 2 0 1 3 3 1 1 3 4 4 5 7 6 5 4 4 4 3 2 2 3 1 3 3 3 4 6 6 3 1 2 5 6 11 15 13 12 18 22 24 24 23 19 17
20 6 5 19 24 27 26 14 7 7 4 4 4 3 5 4 4 7 7 6 4 2 2 2 2 3 3 3 3 2 3 3 2 2 2 3 2 2 3 3 4 4 3 2 1 1 2 3 2 1 3 5 4 3 1 4 4 4 2 2 3 3 4 4 6 3 2 1 1 2 4 4 2 2 2 3 8 13 17 17 17 21 25 26 25 22 19 17
13 4 8 19 25 30 23 7 5 7 4 3 5 5 6 5 4 6 6 5 3 3 3 2 3 4 3 3 3 3 3 2 3 4 2 2 3 3 5 6 3 4 4 1 1 1 3 2 1 2 3 2 4 4 4 2 3 2 2 1 3 3 3 4 4 2 2 2 1 1 4 3 1 3 3 4 9 13 17 19 19 22 25 25 24 21 19 19
8 6 7 15 24 30 19 5 6 8 5 4 4 5 6 5 5 6 5 6 5 4 3 2 4 5 4 4 5 5 6 3 4 6 5 4 3 2 5 7 6 4 4 4 4 5 3 1 2 2 3 3 4 3 4 4 0 2 2 1 2 3 5 3 1 3 1 4 5 4 6 4 1 4 5 6 8 10 14 18 17 17 20 23 24 22 22 22
7 4 4 8 19 23 11 3 2 5 6 6 4 6 5 3 7 11 9 7 8 6 4 3 7 7 5 4 4 5 8 7 5 5 5 4 2 0 3 7 10 9 6 6 8 8 5 3 3 4 6 7 5 3 3 3 2 1 1 2 2 4 6 4 2 2 2 3 5 5 6 3 2 3 2 1 4 6 10 14 15 15 16 20 23 23 24 24
5 2 1 3 10 15 12 8 3 1 4 6 3 4 7 4 4 11 13 9 9 10 6 3 7 6 4 5 6 6 8 8 5 4 4 4 2 2 0 3 7 8 6 7 8 6 3 1 3 6 8 8 5 5 4 3 3 2 2 3 4 4 5 5 3 3 3 2 3 6 5 1 4 4 4 4 5 5 7 11 15 17 17 19 21 22 24 24
5 2 4 4 4 8 11 12 8 2 1 4 3 2 7 8 4 6 12 10 10 13 7 2 5 6 5 8 7 6 8 7 6 5 4 4 2 1 1 2 4 6 7 7 6 5 3 2 4 5 6 4 3 4 3 3 4 4 3 5 7 5 6 6 4 5 4 3 7 9 6 5 9 9 7 7 7 6 7 12 16 17 17 19 20 21 22 23
6 3 9 9 4 3 6 10 11 8 3 3 3 1 3 8 6 6 9 6 7 13 9 3 6 10 9 10 7 5 7 7 6 6 4 3 3 2 2 2 1 2 3 3 3 4 3 3 3 3 4 3 4 3 3 3 2 4 5 9 10 6 7 7 7 8 7 6 9 9 6 7 10 8 5 8 10 10 12 15 17 16 16 17 19 20 22 23
8 4 9 13 6 4 11 15 13 11 10 6 3 4 6 9 9 8 6 2 3 9 11 8 8 10 9 9 8 7 8 7 6 5 4 4 4 4 2 1 1 2 2 2 2 2 3 2 2 3 3 3 1 3 3 4 4 5 7 11 10 6 6 8 9 9 8 9 11 10 9 10 10 7 6 10 13 13 15 17 17 16 16 15 17 20 23 23
10 6 8 11 8 6 10 13 10 9 10 9 7 8 9 9 11 9 6 6 6 6 9 12 11 9 9 9 10 10 9 9 8 7 7 6 4 3 3 3 3 3 2 2 0 0 1 1 1 3 1 4 2 2 3 3 3 5 9 11 6 3 5 9 9 6 5 8 11 9 9 11 12 10 8 11 13 11 12 15 16 16 15 14 17 20 22 22
13 11 9 8 6 6 7 8 8 7 7 8 9 10 9 12 14 10 4 7 9 5 8 14 12 7 7 9 11 11 9 8 7 8 10 9 7 7 5 5 8 6 2 3 2 0 1 1 1 4 2 4 3 2 3 2 4 5 13 13 7 5 8 9 6 6 8 9 8 6 6 9 12 10 8 10 12 11 13 15 15 15 14 14 17 20 21 20
15 11 9 6 3 6 7 5 6 7 7 9 12 12 11 12 11 8 5 5 7 7 8 13 12 6 5 10 13 13 10 9 9 9 10 8 8 8 6 7 12 10 6 5 2 1 3 4 2 3 3 4 4 2 1 5 5 8 11 10 9 10 11 9 7 8 9 7 6 6 8 9 8 7 7 7 9 11 14 16 16 15 15 16 17 19 19 17
Wind_Direction
199 198 199 200 199 201 202 202 203 206 207 211 216 217 222 225 230 235 242 248 254 262 270 275 283 291 298 306 312 318 321 321 321 317 310 301 282 197 153 121 58 29 24 20 105 159 160 140 139 96 67 72 84 86 92 100 129 58 86 95 258 203 201 193 171 162 202 269 293 302 285 251 275 301 324 294 277 294 299 294 291 286 281 281 286 294 303 309
204 203 203 203 203 205 205 207 207 209 211 215 219 223 228 232 238 242 249 257 263 269 275 280 287 292 298 305 309 315 318 320 320 318 315 308 172 143 129 91 39 5 1 334 278 181 181 165 139 79 62 65 56 110 152 189 174 136 110 115 228 204 212 217 202 216 214 274 283 293 281 267 289 309 327 301 288 304 299 295 297 295 295 296 297 300 306 308
209 209 209 209 209 210 212 214 213 216 219 221 226 229 235 240 245 251 256 261 265 270 275 279 283 287 292 296 302 310 316 321 324 344 69 100 131 135 112 39 354 343 335 297 268 207 202 191 119 120 139 69 220 208 198 195 194 197 121 135 242 221 240 273 272 268 284 299 291 300 295 291 304 312 315 302 302 302 280 288 295 297 304 311 312 310 309 308
215 216 216 216 217 218 219 222 222 226 228 231 235 237 243 247 249 252 255 258 262 266 269 273 276 281 284 289 298 305 318 325 328 128 113 113 128 111 23 341 333 328 309 294 264 221 214 193 138 153 198 242 210 220 226 204 200 195 154 182 233 209 240 276 284 294 310 322 306 298 300 303 310 310 306 310 318 296 277 287 292 294 305 313 316 316 311 307
223 224 224 224 226 226 228 230 233 236 237 241 244 247 249 250 251 253 255 258 260 264 267 271 274 279 282 288 295 300 322 343 144 155 162 163 258 317 321 317 318 314 297 275 240 213 208 187 163 171 199 240 165 179 244 209 187 178 210 227 240 207 217 273 284 298 307 312 304 298 301 307 310 305 299 298 283 274 287 298 301 301 307 313 317 317 314 309
229 230 230 231 233 234 236 237 240 243 246 249 249 252 254 255 258 259 261 263 266 270 273 275 277 280 284 287 290 294 305 281 203 203 216 237 279 293 295 302 309 306 290 249 228 207 202 190 189 188 185 238 181 188 251 215 194 217 257 246 252 247 244 270 280 292 301 303 295 292 298 304 309 303 301 290 273 284 297 302 304 308 313 316 317 319 320 318
231 231 231 233 235 236 238 240 243 246 249 252 254 258 260 263 265 267 269 271 274 277 279 280 281 281 284 285 287 287 267 259 260 248 246 258 273 279 276 292 303 295 265 225 221 206 205 195 199 195 162 230 226 217 270 268 208 215 262 266 267 268 259 267 278 288 294 291 286 291 294 293 293 295 306 294 285 294 306 305 307 314 319 321 321 324 326 325
231 231 231 233 235 237 239 242 245 249 253 256 261 265 268 271 273 275 277 278 279 280 281 281 281 281 282 283 283 277 263 271 275 252 251 255 260 262 262 281 295 277 232 209 214 207 208 202 204 204 177 207 229 232 315 334 218 193 239 286 292 291 284 284 290 289 290 289 290 296 287 281 284 286 291 285 288 303 312 309 315 319 324 332 334 332 332 328
232 233 233 234 237 239 242 246 250 254 259 264 268 272 275 277 279 281 282 282 283 283 282 281 281 281 281 279 276 271 270 279 281 248 247 244 244 244 251 265 268 263 227 204 206 207 207 205 209 208 211 226 233 268 11 21 267 199 220 289 292 294 299 298 293 288 288 287 289 292 284 284 288 293 280 278 292 315 312 314 324 327 336 352 352 346 344 332
237 237 238 240 242 245 249 252 257 261 265 268 271 274 277 279 281 283 284 285 286 285 285 283 282 282 280 274 249 247 276 281 277 262 246 239 240 240 248 255 253 257 234 210 207 212 211 206 209 209 231 249 224 293 350 107 275 287 300 309 297 300 304 296 287 287 288 287 283 262 267 282 287 329 266 279 312 319 310 318 325 333 351 3 359 350 344 327
241 242 245 248 250 253 255 258 261 264 267 269 273 276 278 281 283 284 284 285 285 286 285 283 284 280 280 270 226 231 276 281 277 273 256 249 243 241 245 244 243 247 240 226 214 217 218 213 214 222 240 230 246 305 322 323 329 326 334 322 306 316 308 292 284 285 285 291 279 222 249 286 288 161 247 275 317 315 309 316 324 349 11 14 1 347 331 321
245 247 250 253 255 256 258 259 261 262 265 268 272 276 278 280 281 283 284 284 284 284 282 282 282 278 278 266 246 254 275 274 273 271 260 253 242 238 240 238 249 259 254 242 229 225 222 219 219 225 234 204 267 325 322 329 327 319 339 319 304 342 316 290 288 280 262 260 240 167 287 312 211 214 252 282 301 304 306 310 332 7 21 19 5 346 337 339
247 250 252 254 255 256 257 257 258 260 262 266 270 273 276 277 278 281 281 282 282 281 282 281 280 281 273 261 261 267 269 264 263 261 255 250 246 245 248 252 262 267 254 241 238 232 225 224 223 224 234 227 220 282 281 307 312 307 331 244 301 356 319 286 300 265 257 267 208 148 156 289 252 245 262 291 295 300 303 308 344 10 19 32 49 48 59 63
247 249 250 252 253 253 254 254 255 257 260 263 266 269 272 275 276 279 280 281 281 280 282 282 283 281 262 257 269 267 260 261 257 252 253 252 252 255 259 265 265 256 241 233 232 229 224 225 230 233 240 246 244 243 304 320 312 302 345 28 331 338 279 291 313 297 313 297 197 156 185 257 265 273 278 297 296 296 297 316 357 12 30 54 81 85 80 76
243 244 245 246 247 247 248 250 252 255 258 261 266 271 275 277 277 278 279 279 279 280 281 282 280 271 260 263 267 263 258 255 252 251 253 255 258 262 266 265 254 240 230 224 223 223 222 222 230 236 229 241 245 71 359 344 339 23 19 311 333 193 262 304 307 266 209 268 166 148 213 261 269 279 287 298 294 293 305 341 14 28 56 72 85 83 81 73
238 238 239 240 239 242 243 246 250 254 258 263 269 275 277 279 280 280 281 279 279 277 276 277 268 254 259 270 262 256 251 242 242 245 248 255 260 262 260 249 235 226 221 219 221 221 224 226 231 236 217 208 113 87 43 2 335 356 188 246 270 205 252 311 310 304 165 172 124 157 218 274 278 278 293 299 298 306 333 9 46 82 82 85 85 83 84 78
235 233 234 233 234 237 238 240 245 250 255 262 267 275 281 283 284 283 281 277 276 274 270 264 257 250 254 259 255 248 242 233 234 238 242 249 252 247 232 224 215 213 216 214 217 216 217 206 181 208 228 88 101 99 60 339 300 317 277 223 241 213 199 274 303 342 53 82 42 266 218 257 275 284 293 298 306 322 357 48 84 95 90 90 86 83 78 71
230 229 229 228 228 230 232 234 238 243 250 259 268 275 282 283 282 279 274 271 268 268 267 244 223 253 259 244 237 240 239 231 231 232 235 233 230 221 205 203 204 203 198 192 200 186 179 154 126 151 23 59 122 118 151 229 223 242 236 225 259 251 229 248 274 309 13 22 307 301 296 270 281 287 288 298 317 332 4 73 96 97 94 91 86 81 74 68
225 225 225 222 221 223 225 229 233 240 248 261 274 280 285 284 280 272 262 254 240 225 254 222 195 185 240 213 213 245 247 226 221 220 223 220 206 198 188 177 177 177 162 153 193 172 152 100 79 141 216 196 199 175 195 215 200 215 223 201 229 257 261 258 259 269 341 350 288 281 280 273 286 285 291 312 333 345 43 96 96 94 91 88 84 80 76 73
222 222 219 214 215 219 221 226 235 243 250 264 276 283 284 281 281 268 252 243 235 231 243 231 218 230 239 224 247 261 238 212 214 213 211 208 194 184 176 165 159 162 157 155 192 184 145 118 161 210 213 210 213 204 208 224 199 209 227 226 241 246 269 269 267 280 312 326 274 265 260 271 276 278 308 330 353 67 103 104 94 91 89 86 85 82 79 78
220 218 212 211 213 217 220 227 238 248 256 265 270 269 257 245 245 275 269 261 253 248 249 249 246 250 253 252 259 262 235 214 215 211 206 202 190 178 177 166 141 154 218 140 119 113 126 154 220 221 217 216 220 201 202 237 231 227 237 258 271 249 257 256 250 280 303 156 256 275 320 289 275 286 342 1 38 68 92 102 96 94 91 87 86 84 84 86
215 212 208 211 212 216 222 228 241 252 259 262 255 239 233 235 246 269 286 281 269 260 253 252 250 250 252 248 248 250 237 224 218 210 205 196 187 185 179 161 146 185 185 119 98 97 141 213 237 232 224 231 264 154 164 204 192 186 190 203 260 248 266 276 265 288 348 158 252 311 339 283 280 335 24 37 69 73 89 103 101 100 94 87 86 85 89 91
212 206 204 209 210 215 222 229 240 250 253 248 236 228 232 238 244 269 283 280 280 274 257 248 245 244 246 244 240 236 229 226 225 215 206 192 188 191 178 164 168 165 158 168 155 149 183 233 243 238 220 220 265 208 148 157 177 198 187 177 240 234 204 273 279 299 321 259 270 323 317 280 276 80 56 52 78 83 89 97 96 97 93 89 90 90 92 92
210 203 202 203 206 216 223 231 239 244 243 232 222 223 228 236 243 283 287 266 284 281 260 247 243 241 242 239 233 228 224 225 227 213 202 192 185 184 186 183 170 158 189 196 181 178 213 236 242 221 174 179 241 265 178 159 238 249 212 203 227 222 204 228 280 318 330 343 8 15 337 295 262 209 94 76 84 82 84 89 87 88 92 94 96 95 94 93
207 203 198 195 202 214 221 231 232 230 230 222 217 213 204 221 245 333 317 293 284 277 257 232 228 232 231 228 222 214 213 219 220 207 198 193 185 175 190 190 174 199 211 191 184 205 240 248 224 120 144 166 199 258 230 171 217 284 233 212 214 219 223 224 337 13 18 339 333 37 352 295 294 285 159 137 87 74 76 80 81 84 91 95 95 96 97 97
206 201 195 195 202 210 220 228 220 214 216 215 209 195 189 201 155 22 8 32 297 254 207 188 200 203 202 196 181 171 183 225 214 201 192 190 190 178 166 183 181 214 200 167 176 220 243 244 211 165 167 151 175 245 236 167 153 279 249 206 193 182 190 177 133 88 120 247 289 55 142 268 312 320 192 164 111 89 80 71 79 86 90 94 96 99 102 101
207 201 195 200 205 209 217 217 207 204 204 207 200 187 188 172 123 60 35 3 287 205 151 163 177 180 184 167 159 155 162 189 175 187 187 186 192 186 182 197 182 208 174 134 169 240 213 224 218 194 181 161 193 247 228 161 134 243 248 140 133 135 156 165 131 130 212 248 317 359 156 253 292 280 209 153 122 109 100 79 84 92 94 98 101 104 106 105
210 200 194 199 207 213 215 215 216 211 205 207 197 187 171 137 127 84 69 299 277 128 124 153 151 156 163 162 165 158 138 143 138 179 183 182 188 185 208 217 176 199 177 133 201 256 185 202 214 181 165 187 211 232 197 156 142 240 217 123 121 136 142 127 103 109 292 9 306 286 154 255 266 271 220 153 152 168 158 144 116 107 106 107 109 110 108 108
210 201 199 200 209 215 216 225 232 225 224 218 198 187 160 138 121 70 89 234 236 103 134 151 143 151 146 152 168 151 127 131 109 170 173 181 189 173 200 212 175 196 262 131 205 256 58 220 211 151 150 207 211 235 186 163 178 207 155 98 62 71 81 79 103 111 31 350 251 236 180 206 266 280 211 186 223 207 167 156 143 128 123 121 120 118 114 112
209 203 201 201 209 215 217 228 235 230 229 221 209 197 168 149 117 105 214 226 105 101 138 151 164 161 141 132 146 155 141 91 97 140 153 178 187 168 106 154 123 118 347 6 252 262 336 350 228 151 182 193 152 92 63 140 157 128 99 54 28 29 42 45 71 89 56 280 250 223 192 183 267 287 194 192 261 197 157 152 159 144 138 137 133 127 123 119
213 208 205 204 211 215 220 228 232 229 223 218 214 196 166 148 116 196 217 228 46 140 130 146 176 148 143 136 157 174 118 85 124 131 130 143 164 154 98 113 86 79 355 331 309 309 329 310 261 241 197 142 108 78 34 37 74 97 81 62 42 343 8 24 357 45 118 255 267 235 184 167 226 266 270 290 311 240 169 165 167 156 148 148 143 137 131 126
219 217 216 216 218 221 226 231 233 229 221 213 204 184 156 163 224 203 209 51 73 194 157 167 191 159 159 138 153 168 125 133 162 135 134 140 156 184 174 170 160 90 326 253 261 336 308 247 269 319 218 163 116 80 21 10 37 81 89 83 75 329 352 355 304 353 217 251 271 176 133 164 235 238 315 305 320 312 189 163 161 156 151 152 150 145 139 133
223 223 226 230 230 229 230 232 230 225 218 204 189 170 143 223 223 177 168 179 209 195 135 139 152 153 152 138 168 174 136 163 183 161 142 125 149 223 246 211 169 129 196 203 201 348 291 293 303 30 267 194 155 141 181 258 117 139 142 126 122 138 190 267 263 266 265 268 276 163 138 276 267 292 338 308 323 333 141 148 153 152 151 155 154 150 146 141
225 227 233 238 238 235 234 230 222 216 210 197 181 157 161 218 218 152 180 201 231 33 68 109 136 134 138 159 197 172 145 186 173 147 95 106 130 233 251 235 196 155 117 145 178 178 200 298 231 182 219 184 175 179 165 144 149 178 156 136 147 158 174 223 227 215 254 280 288 246 184 214 222 296 328 339 13 54 119 138 147 150 154 157 156 155 151 145
227 230 234 237 236 230 226 220 211 205 201 192 175 167 201 204 178 154 191 195 171 103 42 64 116 129 163 213 217 179 169 201 156 123 123 156 175 199 210 215 192 168 135 149 223 174 166 256 248 245 179 164 174 189 141 111 101 216 127 115 172 189 168 207 220 185 191 291 286 227 214 205 182 269 342 50 60 77 111 132 141 148 155 159 159 159 154 147
226 230 231 230 225 218 213 208 202 200 197 187 174 211 208 192 166 173 182 169 163 151 131 73 87 136 205 259 238 207 165 116 138 137 190 194 206 207 214 229 189 176 170 164 210 179 145 264 280 359 46 152 154 170 139 126 184 166 128 180 216 180 132 125 270 235 100 270 267 210 232 287 335 276 342 53 67 86 111 132 144 153 161 166 167 162 157 152
221 225 223 218 212 206 203 201 198 199 196 189 206 221 191 128 189 177 159 151 148 140 141 160 177 170 194 209 214 202 165 122 141 154 205 216 231 204 207 254 192 185 196 183 210 207 152 264 282 122 149 235 88 99 72 52 125 133 167 212 203 114 86 98 237 321 17 253 273 272 239 249 241 247 283 81 161 176 180 166 161 168 175 177 174 166 162 158
217 214 210 205 200 197 197 196 195 196 195 197 231 226 191 215 199 169 160 146 118 129 147 190 198 171 180 193 213 189 164 173 166 165 190 209 240 191 172 219 202 199 212 193 195 246 133 224 284 250 155 253 26 86 59 10 64 129 180 194 124 128 262 88 164 227 243 246 276 292 268 241 208 208 194 200 203 194 192 190 186 190 190 187 178 170 168 165
205 198 199 198 193 193 195 195 195 196 198 211 222 218 201 199 208 195 183 159 109 136 166 200 189 152 175 176 182 178 170 179 171 170 180 180 223 196 155 189 198 213 218 182 175 246 119 145 272 303 164 241 39 89 194 242 33 75 90 26 76 165 181 172 171 173 190 228 259 288 291 267 237 202 183 200 199 181 182 192 199 201 195 188 180 174 174 173
187 182 195 196 191 193 195 194 195 196 206 228 205 196 173 184 203 198 188 175 131 140 185 197 168 161 178 154 145 171 167 173 168 174 200 186 208 224 160 167 155 111 92 147 153 208 106 150 232 297 334 131 165 212 195 183 164 121 136 203 239 191 154 229 213 137 147 190 226 268 274 263 260 197 183 206 194 175 183 186 192 201 197 190 184 180 180 180
180 178 200 189 187 190 189 191 196 197 217 231 191 159 171 185 178 178 184 183 170 143 155 165 163 168 167 152 151 143 126 151 163 173 220 213 209 224 208 126 142 152 66 83 113 121 137 160 184 251 306 185 224 243 191 178 167 154 175 192 187 167 137 239 253 187 148 181 191 232 264 269 266 259 228 221 185 177 186 181 185 198 195 192 190 187 186 186
179 179 180 178 183 187 183 187 201 197 215 215 186 171 173 173 165 165 171 174 168 144 125 129 159 167 161 160 164 155 150 151 159 172 223 225 219 206 190 165 137 140 119 107 190 196 103 113 145 226 212 208 244 294 219 196 152 130 175 182 158 150 138 183 233 220 162 209 153 184 257 272 262 294 305 202 170 175 184 182 185 195 196 196 196 194 192 194
176 144 161 172 180 183 183 196 210 198 224 202 175 179 172 161 162 165 168 173 163 148 157 167 178 190 202 172 150 159 165 158 182 189 200 218 225 226 194 182 142 103 105 119 233 132 89 97 182 263 302 313 318 336 346 2 88 111 267 160 139 164 151 177 215 168 139 242 215 220 252 244 272 342 29 128 157 169 184 190 191 196 200 201 199 199 201 204
152 106 140 167 177 182 186 212 206 203 218 184 182 201 186 176 181 176 175 187 183 156 155 183 187 198 210 175 164 176 172 179 206 198 196 194 203 211 179 179 179 154 159 196 187 167 169 158 154 205 299 324 332 343 344 335 352 178 242 208 147 131 112 106 117 106 138 225 192 217 250 241 295 8 59 117 149 171 192 199 200 203 204 203 204 207 211 211
135 104 120 163 183 192 207 266 209 213 209 186 194 205 195 202 200 197 198 199 193 170 152 203 198 189 183 164 171 184 184 198 212 200 199 200 215 254 159 180 190 183 189 198 175 163 178 184 152 177 225 241 240 222 221 253 241 202 248 220 177 137 131 129 122 140 211 205 170 210 245 264 346 357 22 172 183 194 208 209 212 218 214 210 212 217 220 217
146 153 149 159 199 219 251 271 253 238 206 190 190 196 201 225 217 202 204 211 208 191 183 212 189 174 176 173 179 202 206 211 211 185 183 187 218 297 37 167 177 165 157 161 155 139 131 202 197 198 225 234 217 210 205 165 162 196 243 220 205 180 144 127 119 166 205 196 210 228 218 229 287 255 218 236 233 224 228 221 219 224 227 225 225 228 228 223
151 183 186 161 198 237 264 267 248 235 176 185 186 177 198 210 229 206 203 210 208 196 200 242 176 180 196 180 183 212 208 204 200 182 170 166 184 293 25 90 129 139 136 137 137 119 107 228 226 207 235 238 156 175 202 145 166 200 220 241 236 202 139 135 177 201 174 180 243 243 193 185 249 242 203 213 231 232 236 232 230 235 241 242 239 235 228 221
171 200 192 179 170 204 232 243 233 225 242 220 215 322 212 207 218 213 204 209 203 195 200 239 204 203 197 177 179 205 197 198 202 187 166 155 156 130 47 31 70 130 130 116 118 112 124 225 219 164 234 242 123 152 185 146 188 218 219 240 248 224 160 162 210 213 180 198 248 252 212 207 241 245 202 202 215 221 239 251 252 253 254 251 247 238 226 216
187 193 190 189 195 202 202 209 208 212 230 237 233 250 234 220 221 215 191 155 211 206 204 218 221 208 196 184 184 196 195 190 195 192 171 164 168 150 131 281 262 164 125 92 86 107 124 212 184 137 232 258 154 183 192 169 206 238 236 238 244 236 190 193 224 223 198 220 248 256 256 256 254 240 222 236 239 233 243 255 258 256 255 250 242 232 221 210
195 196 187 191 208 223 208 202 190 196 218 221 225 232 226 223 228 225 195 179 206 213 201 216 225 203 193 199 196 206 208 187 186 194 175 166 186 182 175 193 167 135 112 108 134 3 111 187 139 106 213 290 297 198 185 163 188 239 258 251 234 203 218 226 234 227 211 235 246 252 264 270 265 248 234 251 257 239 231 240 245 251 252 241 228 218 208 203
196 193 180 177 207 213 198 193 186 192 209 208 216 223 215 220 223 217 208 214 219 212 195 208 214 194 195 211 209 215 211 183 180 185 171 171 184 184 188 183 156 144 141 155 167 19 114 179 48 79 135 281 310 204 204 34 23 287 271 260 230 207 235 240 228 208 212 228 237 240 248 254 261 260 246 247 248 233 225 228 230 236 235 225 215 204 198 201
199 196 185 168 203 207 191 187 187 196 212 208 211 218 216 219 211 190 206 241 224 221 221 208 195 176 195 213 216 218 198 148 118 115 127 129 123 121 128 152 156 155 157 155 150 84 132 147 128 111 156 271 298 241 187 37 7 283 265 245 221 224 237 245 248 235 219 205 200 217 231 237 246 254 253 249 238 231 234 231 223 219 216 212 209 201 198 207
Height
1555 1555 1555 1556 1556 1556 1556 1557 1557 1557 1557 1557 1558 1558 1558 1558 1558 1558 1558 1558 1558 1558 1558 1558 1557 1557 1557 1556 1556 1555 1554 1554 1552 1551 1550 1549 1549 1550 1551 1551 1551 1551 1551 1551 1551 1551 1551 1551 1551 1552 1551 1551 1552 1552 1553 1553 1553 1553 1555 1559 1560 1562 1559 1553 1553 1552 1552 1551 1548 1547 1546 1547 1546 1544 1544 1543 1543 1542 1540 1537 1536 1536 1536 1536 1537 1537 1537 1537
1554 1555 1555 1555 1555 1556 1556 1556 1556 1556 1557 1557 1557 1557 1557 1557 1557 1558 1557 1557 1557 1557 1557 1557 1557 1556 1556 1556 1555 1554 1554 1553 1551 1550 1548 1547 1548 1549 1550 1550 1551 1551 1551 1550 1550 1550 1550 1551 1551 1551 1551 1551 1552 1552 1552 1552 1553 1554 1557 1560 1559 1558 1554 1549 1550 1550 1550 1550 1548 1547 1546 1546 1545 1543 1543 1542 1542 1542 1540 1535 1532 1532 1531 1533 1535 1536 1536 1536
1554 1554 1554 1554 1555 1555 1555 1555 1555 1556 1556 1556 1556 1556 1556 1557 1557 1557 1557 1557 1556 1556 1556 1556 1556 1556 1555 1555 1554 1554 1553 1552 1550 1549 1548 1548 1548 1549 1550 1550 1550 1550 1550 1550 1550 1550 1550 1550 1550 1550 1551 1551 1552 1552 1552 1552 1553 1553 1556 1559 1556 1553 1550 1548 1548 1548 1549 1548 1547 1547 1546 1545 1544 1543 1542 1541 1541 1540 1539 1534 1532 1529 1527 1530 1532 1534 1534 1534
1553 1553 1553 1554 1554 1554 1554 1555 1555 1555 1555 1555 1555 1555 1555 1556 1556 1556 1556 1556 1556 1556 1555 1555 1555 1555 1555 1554 1554 1553 1552 1551 1549 1549 1549 1549 1549 1549 1549 1549 1550 1550 1550 1550 1550 1550 1550 1550 1550 1550 1551 1551 1551 1552 1552 1552 1553 1553 1554 1555 1552 1550 1550 1547 1546 1547 1547 1547 1546 1545 1545 1543 1542 1542 1541 1540 1540 1538 1536 1534 1532 1529 1527 1528 1529 1531 1532 1532
1552 1552 1552 1553 1553 1553 1553 1554 1554 1554 1554 1554 1554 1554 1554 1554 1554 1554 1554 1554 1555 1554 1554 1554 1554 1554 1554 1553 1553 1553 1553 1552 1549 1549 1549 1549 1549 1549 1549 1549 1549 1549 1549 1549 1549 1549 1549 1549 1550 1550 1551 1551 1551 1552 1551 1551 1552 1553 1552 1551 1549 1549 1549 1546 1546 1546 1545 1546 1545 1544 1544 1543 1542 1541 1540 1540 1539 1536 1533 1533 1532 1529 1527 1528 1528 1529 1530 1530
1550 1551 1551 1551 1552 1552 1552 1552 1553 1553 1553 1553 1553 1553 1553 1553 1553 1553 1553 1553 1553 1553 1553 1553 1553 1553 1552 1552 1552 1552 1553 1552 1549 1548 1549 1548 1548 1548 1548 1548 1548 1548 1548 1548 1549 1549 1549 1549 1550 1550 1550 1551 1551 1551 1550 1551 1552 1552 1551 1549 1548 1549 1548 1546 1546 1546 1545 1545 1543 1543 1543 1542 1542 1540 1539 1539 1536 1532 1531 1532 1532 1529 1528 1528 1528 1528 1528 1528
1549 1549 1550 1550 1551 1551 1551 1551 1552 1552 1552 1552 1552 1552 1552 1552 1552 1552 1552 1552 1552 1552 1552 1551 1551 1551 1551 1551 1551 1551 1551 1549 1547 1548 1548 1547 1547 1547 1547 1547 1547 1547 1547 1548 1548 1549 1549 1549 1549 1550 1550 1551 1551 1550 1550 1550 1551 1551 1550 1548 1548 1548 1547 1546 1546 1545 1544 1543 1542 1542 1542 1541 1541 1540 1539 1536 1532 1530 1530 1531 1531 1529 1527 1527 1528 1527 1527 1527
1547 1548 1548 1549 1549 1549 1550 1550 1550 1551 1551 1551 1551 1551 1551 1551 1550 1550 1550 1550 1550 1551 1550 1550 1550 1549 1550 1549 1549 1549 1548 1546 1546 1546 1546 1546 1546 1546 1546 1546 1546 1546 1546 1547 1547 1548 1548 1548 1549 1549 1550 1550 1550 1549 1550 1550 1550 1550 1550 1548 1547 1547 1546 1545 1544 1543 1542 1541 1540 1541 1539 1539 1539 1540 1538 1533 1529 1529 1529 1529 1529 1528 1527 1527 1527 1526 1526 1525
1546 1546 1547 1547 1547 1548 1548 1549 1549 1549 1549 1549 1549 1549 1549 1549 1549 1549 1548 1548 1548 1549 1548 1548 1548 1548 1548 1548 1548 1548 1545 1544 1544 1544 1544 1544 1544 1544 1545 1545 1545 1545 1545 1546 1546 1547 1547 1548 1548 1548 1549 1549 1549 1549 1549 1549 1550 1549 1548 1548 1547 1545 1544 1543 1542 1540 1540 1539 1539 1539 1536 1535 1537 1538 1535 1529 1527 1527 1527 1528 1528 1527 1527 1526 1526 1525 1525 1524
1544 1545 1545 1546 1546 1547 1547 1547 1547 1548 1548 1548 1548 1548 1547 1547 1547 1547 1546 1546 1546 1546 1546 1546 1546 1546 1546 1546 1547 1546 1543 1542 1543 1543 1543 1543 1543 1543 1544 1544 1544 1544 1545 1545 1545 1545 1546 1547 1547 1547 1548 1548 1548 1548 1549 1549 1549 1548 1547 1546 1545 1544 1542 1541 1539 1537 1537 1536 1536 1537 1535 1533 1535 1537 1533 1527 1526 1526 1524 1526 1526 1526 1526 1525 1525 1524 1524 1522
1543 1543 1544 1544 1545 1545 1545 1546 1546 1546 1546 1546 1546 1546 1546 1546 1545 1545 1545 1545 1545 1545 1544 1544 1544 1544 1544 1544 1545 1543 1541 1542 1542 1541 1542 1542 1542 1542 1542 1543 1543 1544 1544 1543 1544 1544 1545 1545 1546 1546 1547 1547 1548 1548 1548 1547 1547 1547 1546 1545 1543 1543 1540 1537 1537 1535 1535 1534 1533 1534 1533 1532 1534 1535 1530 1525 1525 1525 1523 1523 1525 1526 1525 1524 1524 1523 1522 1521
1541 1542 1543 1543 1544 1544 1544 1544 1544 1544 1544 1544 1544 1544 1544 1544 1544 1544 1543 1543 1543 1543 1543 1543 1543 1542 1542 1542 1541 1540 1539 1540 1540 1540 1540 1540 1540 1541 1541 1542 1542 1543 1543 1542 1543 1543 1544 1544 1544 1545 1545 1546 1547 1547 1547 1546 1547 1546 1546 1545 1543 1543 1539 1534 1534 1534 1533 1533 1531 1533 1534 1532 1532 1530 1525 1524 1525 1524 1522 1522 1524 1524 1524 1523 1522 1522 1521 1520
1540 1540 1541 1541 1542 1542 1542 1542 1543 1543 1543 1543 1543 1543 1543 1542 1542 1542 1542 1542 1542 1541 1541 1541 1541 1541 1540 1539 1537 1537 1538 1538 1538 1539 1538 1539 1539 1539 1540 1540 1541 1541 1541 1541 1541 1542 1543 1543 1543 1544 1544 1545 1545 1546 1546 1545 1545 1544 1545 1546 1544 1545 1540 1532 1532 1533 1532 1532 1530 1533 1539 1535 1528 1525 1523 1524 1525 1523 1522 1522 1523 1523 1523 1522 1521 1521 1520 1520
1537 1538 1539 1539 1540 1540 1540 1541 1541 1541 1541 1541 1541 1541 1541 1541 1541 1541 1540 1540 1540 1540 1540 1539 1539 1539 1538 1536 1535 1536 1536 1536 1537 1537 1536 1537 1537 1538 1538 1538 1539 1539 1539 1540 1540 1541 1541 1542 1543 1543 1543 1544 1544 1545 1545 1545 1545 1545 1546 1546 1548 1550 1541 1531 1531 1533 1531 1531 1529 1532 1540 1535 1526 1523 1523 1523 1524 1523 1522 1522 1524 1523 1522 1522 1520 1520 1520 1519
1535 1536 1537 1537 1538 1538 1538 1539 1539 1539 1540 1540 1540 1540 1539 1539 1539 1539 1539 1539 1539 1539 1538 1538 1538 1538 1537 1534 1533 1534 1534 1534 1534 1534 1535 1535 1535 1536 1536 1537 1537 1537 1538 1538 1539 1540 1541 1541 1542 1542 1543 1543 1543 1545 1547 1547 1545 1546 1548 1548 1551 1551 1543 1533 1530 1531 1531 1530 1530 1533 1538 1534 1527 1525 1523 1522 1523 1523 1523 1524 1524 1523 1522 1522 1520 1520 1520 1519
1533 1534 1535 1535 1536 1536 1537 1537 1537 1538 1538 1538 1538 1538 1538 1538 1537 1537 1537 1537 1537 1537 1537 1537 1536 1537 1535 1533 1532 1532 1532 1533 1533 1533 1533 1533 1534 1535 1535 1536 1536 1536 1537 1537 1538 1539 1540 1541 1542 1542 1543 1543 1544 1546 1548 1550 1548 1548 1549 1549 1549 1550 1548 1540 1530 1528 1530 1529 1531 1533 1534 1533 1528 1525 1522 1521 1521 1522 1523 1524 1523 1523 1522 1522 1521 1520 1520 1519
1531 1532 1533 1533 1534 1534 1535 1536 1536 1536 1537 1537 1537 1537 1537 1537 1536 1536 1536 1536 1536 1535 1536 1535 1535 1536 1533 1530 1530 1530 1530 1531 1531 1532 1532 1532 1533 1534 1534 1535 1535 1536 1536 1537 1538 1538 1539 1540 1541 1542 1543 1544 1545 1546 1551 1554 1551 1548 1550 1549 1548 1548 1549 1544 1533 1529 1530 1530 1532 1532 1533 1532 1527 1524 1522 1520 1520 1521 1522 1523 1523 1523 1522 1522 1521 1520 1520 1519
1529 1530 1531 1531 1532 1533 1534 1534 1534 1535 1535 1535 1536 1536 1536 1535 1535 1535 1535 1535 1534 1534 1535 1534 1534 1536 1531 1527 1528 1529 1529 1530 1530 1531 1531 1532 1532 1533 1534 1534 1534 1535 1536 1537 1537 1538 1539 1540 1541 1542 1543 1545 1545 1546 1550 1550 1545 1543 1546 1547 1547 1546 1546 1544 1538 1532 1530 1531 1532 1532 1533 1531 1527 1525 1522 1520 1521 1520 1521 1522 1522 1522 1522 1522 1521 1520 1520 1519
1527 1528 1529 1530 1531 1531 1532 1532 1533 1533 1534 1534 1534 1534 1534 1534 1534 1533 1533 1533 1533 1533 1533 1531 1531 1532 1529 1525 1526 1527 1528 1528 1529 1529 1530 1530 1531 1532 1533 1533 1534 1535 1536 1537 1537 1538 1539 1540 1542 1543 1543 1543 1542 1542 1541 1538 1537 1539 1541 1543 1545 1545 1543 1541 1538 1533 1531 1533 1532 1531 1532 1530 1527 1524 1521 1521 1522 1521 1521 1522 1522 1523 1522 1522 1522 1521 1521 1520
1525 1526 1527 1528 1529 1529 1530 1531 1532 1532 1533 1533 1533 1533 1533 1533 1533 1532 1531 1531 1530 1529 1529 1527 1527 1527 1526 1525 1526 1526 1526 1527 1527 1528 1529 1529 1530 1531 1532 1533 1534 1535 1536 1536 1537 1538 1539 1541 1542 1540 1537 1536 1535 1536 1535 1535 1537 1539 1541 1543 1544 1545 1543 1539 1536 1532 1531 1534 1532 1530 1530 1529 1526 1523 1521 1522 1521 1522 1522 1523 1524 1524 1524 1524 1523 1523 1522 1522
1523 1524 1525 1526 1527 1528 1529 1529 1530 1531 1531 1531 1532 1532 1532 1532 1532 1531 1530 1528 1527 1526 1526 1525 1525 1524 1524 1525 1525 1525 1525 1526 1526 1526 1527 1528 1529 1530 1531 1533 1534 1535 1536 1536 1538 1538 1539 1542 1540 1533 1531 1531 1531 1534 1535 1537 1539 1540 1542 1543 1544 1545 1542 1536 1534 1531 1531 1533 1532 1531 1530 1527 1524 1523 1523 1522 1521 1523 1524 1524 1525 1525 1525 1526 1525 1525 1524 1524
1521 1522 1524 1525 1525 1526 1527 1528 1529 1529 1530 1530 1530 1531 1531 1531 1531 1530 1529 1527 1524 1523 1523 1522 1522 1522 1521 1522 1523 1523 1524 1524 1524 1525 1526 1527 1528 1529 1530 1532 1533 1534 1536 1536 1538 1541 1543 1542 1534 1528 1529 1531 1532 1534 1536 1537 1538 1540 1542 1544 1544 1542 1539 1535 1532 1531 1531 1531 1530 1530 1530 1526 1523 1525 1526 1524 1524 1526 1526 1525 1527 1527 1527 1527 1527 1527 1526 1526
1519 1520 1522 1523 1524 1525 1526 1527 1527 1528 1528 1529 1529 1529 1529 1529 1529 1529 1529 1527 1522 1519 1519 1519 1518 1518 1518 1519 1520 1521 1521 1521 1522 1522 1524 1525 1526 1528 1529 1530 1532 1533 1535 1535 1536 1541 1543 1537 1528 1526 1530 1532 1532 1533 1535 1537 1538 1539 1540 1543 1542 1539 1539 1535 1531 1531 1530 1529 1529 1529 1529 1525 1522 1525 1528 1528 1528 1528 1528 1527 1528 1528 1528 1528 1529 1528 1528 1527
1517 1519 1520 1521 1523 1524 1524 1526 1526 1526 1527 1527 1528 1528 1528 1528 1528 1528 1527 1527 1522 1516 1514 1514 1515 1515 1515 1516 1517 1518 1518 1519 1519 1520 1521 1523 1525 1527 1527 1527 1530 1532 1533 1532 1532 1535 1534 1527 1525 1527 1530 1532 1532 1532 1535 1538 1538 1537 1536 1537 1536 1534 1535 1533 1531 1530 1528 1529 1530 1528 1528 1524 1519 1522 1527 1531 1530 1530 1530 1530 1530 1530 1529 1529 1529 1529 1528 1527
1515 1517 1518 1519 1521 1522 1523 1524 1523 1525 1525 1525 1526 1526 1527 1527 1526 1527 1526 1526 1524 1516 1511 1511 1512 1512 1512 1513 1514 1515 1517 1517 1518 1518 1519 1521 1522 1524 1525 1526 1528 1530 1530 1531 1533 1534 1529 1524 1525 1528 1530 1532 1533 1532 1533 1536 1538 1536 1532 1529 1529 1528 1530 1532 1533 1533 1532 1533 1531 1530 1533 1528 1519 1520 1527 1530 1531 1532 1533 1532 1532 1532 1531 1530 1529 1529 1529 1528
1513 1515 1516 1518 1520 1520 1522 1522 1522 1523 1523 1524 1525 1525 1526 1526 1526 1526 1525 1529 1526 1513 1508 1510 1510 1510 1510 1512 1513 1515 1517 1516 1515 1516 1518 1519 1521 1522 1523 1524 1525 1526 1527 1530 1533 1532 1527 1523 1524 1526 1528 1531 1534 1533 1531 1533 1537 1536 1529 1526 1527 1528 1529 1531 1532 1534 1536 1536 1533 1532 1535 1533 1524 1520 1523 1529 1531 1533 1535 1534 1534 1534 1532 1531 1530 1530 1530 1529
1510 1512 1514 1516 1518 1519 1520 1520 1521 1521 1522 1523 1523 1524 1525 1524 1526 1526 1526 1533 1525 1506 1504 1509 1508 1509 1509 1511 1512 1514 1517 1515 1513 1516 1516 1518 1520 1520 1522 1523 1523 1523 1523 1528 1532 1528 1522 1522 1524 1525 1527 1531 1533 1531 1529 1530 1534 1533 1529 1527 1529 1528 1529 1531 1532 1533 1536 1537 1535 1532 1532 1536 1532 1522 1521 1527 1530 1534 1535 1536 1536 1534 1534 1533 1532 1531 1530 1530
1507 1510 1512 1514 1516 1517 1518 1519 1519 1519 1521 1522 1522 1524 1524 1524 1526 1524 1529 1536 1519 1500 1503 1506 1506 1508 1508 1511 1512 1512 1514 1513 1514 1516 1516 1518 1519 1519 1521 1522 1522 1523 1521 1525 1529 1524 1521 1522 1523 1524 1527 1529 1528 1526 1526 1527 1529 1530 1529 1530 1529 1529 1530 1532 1533 1535 1538 1540 1537 1533 1534 1537 1531 1523 1525 1526 1526 1532 1535 1536 1536 1535 1535 1534 1533 1533 1531 1531
1505 1507 1509 1512 1513 1515 1516 1516 1517 1518 1520 1521 1522 1523 1523 1524 1525 1524 1534 1535 1510 1497 1503 1505 1505 1508 1507 1510 1512 1512 1513 1513 1514 1515 1516 1518 1519 1519 1521 1521 1521 1522 1522 1524 1524 1522 1521 1522 1521 1522 1524 1524 1523 1525 1526 1525 1526 1527 1529 1530 1530 1532 1534 1534 1536 1536 1539 1542 1537 1531 1533 1534 1526 1520 1527 1527 1522 1526 1533 1536 1536 1535 1536 1535 1534 1534 1533 1533
1502 1504 1507 1509 1510 1512 1513 1513 1515 1517 1518 1520 1521 1522 1522 1523 1524 1530 1538 1526 1503 1499 1504 1503 1505 1507 1507 1509 1512 1512 1512 1513 1513 1515 1517 1518 1519 1519 1520 1520 1521 1522 1523 1524 1523 1522 1522 1522 1521 1521 1521 1520 1522 1526 1528 1526 1526 1527 1529 1529 1529 1533 1535 1537 1540 1538 1541 1539 1530 1526 1527 1530 1527 1518 1520 1524 1522 1523 1529 1534 1536 1535 1535 1535 1534 1534 1534 1534
1499 1502 1504 1505 1506 1508 1509 1509 1512 1514 1516 1518 1519 1521 1522 1523 1526 1531 1527 1511 1501 1503 1502 1503 1506 1505 1506 1508 1510 1511 1512 1513 1514 1515 1517 1518 1519 1520 1520 1521 1522 1524 1526 1525 1523 1523 1522 1521 1521 1518 1518 1519 1521 1525 1527 1528 1528 1527 1528 1529 1531 1535 1536 1539 1541 1542 1544 1535 1524 1526 1529 1532 1530 1519 1517 1524 1524 1523 1523 1527 1531 1532 1533 1534 1534 1534 1534 1534
1497 1499 1501 1502 1503 1504 1505 1506 1509 1512 1513 1515 1517 1518 1521 1525 1525 1521 1513 1504 1502 1501 1498 1502 1505 1504 1506 1507 1507 1510 1511 1513 1514 1514 1516 1519 1520 1519 1519 1519 1520 1524 1528 1525 1523 1523 1521 1519 1519 1518 1517 1518 1520 1524 1528 1529 1529 1528 1529 1532 1537 1542 1543 1542 1542 1544 1543 1532 1526 1530 1532 1531 1526 1519 1524 1528 1526 1524 1521 1521 1526 1528 1530 1532 1532 1533 1534 1534
1493 1496 1497 1499 1499 1500 1502 1503 1506 1508 1509 1512 1513 1513 1519 1524 1515 1506 1505 1502 1498 1496 1496 1499 1501 1502 1505 1505 1506 1509 1510 1511 1512 1514 1516 1518 1520 1519 1518 1518 1518 1519 1521 1523 1525 1524 1520 1519 1519 1519 1517 1516 1517 1521 1525 1527 1528 1529 1528 1531 1538 1545 1547 1544 1542 1546 1540 1528 1529 1533 1531 1527 1519 1519 1530 1531 1526 1526 1522 1523 1526 1527 1529 1531 1531 1533 1533 1534
1490 1492 1494 1495 1496 1497 1498 1501 1502 1503 1506 1508 1509 1511 1516 1514 1504 1497 1499 1498 1495 1495 1496 1497 1500 1502 1503 1503 1504 1505 1507 1510 1511 1513 1515 1517 1520 1519 1516 1516 1518 1516 1517 1522 1525 1522 1522 1519 1515 1515 1514 1513 1514 1515 1517 1520 1525 1528 1527 1528 1531 1533 1536 1536 1534 1536 1531 1524 1528 1532 1527 1520 1513 1520 1532 1531 1528 1528 1525 1526 1528 1528 1530 1531 1531 1533 1533 1534
1487 1489 1490 1491 1492 1493 1495 1497 1498 1500 1502 1503 1505 1509 1507 1501 1497 1497 1496 1494 1494 1496 1496 1497 1499 1502 1503 1503 1502 1502 1502 1507 1510 1512 1514 1516 1516 1515 1512 1511 1513 1515 1516 1520 1521 1521 1523 1516 1509 1511 1511 1510 1513 1513 1515 1517 1522 1529 1530 1529 1529 1524 1523 1528 1529 1529 1528 1528 1528 1525 1522 1521 1522 1529 1533 1531 1530 1531 1528 1529 1529 1529 1531 1531 1532 1533 1533 1534
1483 1485 1486 1487 1488 1490 1492 1494 1495 1497 1498 1499 1501 1501 1494 1488 1490 1492 1489 1489 1491 1493 1496 1499 1500 1502 1505 1503 1502 1503 1501 1504 1510 1512 1513 1515 1514 1512 1510 1506 1508 1511 1511 1513 1515 1518 1521 1516 1510 1512 1512 1512 1514 1513 1514 1516 1518 1527 1530 1525 1525 1524 1521 1526 1531 1531 1532 1533 1527 1517 1516 1523 1527 1528 1531 1532 1532 1532 1532 1531 1531 1531 1531 1531 1531 1532 1532 1533
1479 1481 1482 1483 1485 1487 1489 1491 1493 1495 1496 1496 1495 1491 1486 1484 1484 1485 1485 1486 1488 1489 1493 1499 1498 1499 1502 1502 1501 1502 1501 1503 1509 1510 1512 1515 1511 1507 1507 1504 1504 1506 1505 1506 1508 1510 1514 1514 1511 1512 1512 1513 1514 1513 1514 1516 1516 1523 1526 1520 1522 1525 1524 1527 1533 1534 1535 1536 1528 1516 1514 1519 1518 1520 1530 1535 1533 1533 1534 1533 1532 1532 1531 1531 1531 1531 1531 1532
1476 1478 1479 1480 1483 1485 1487 1490 1491 1493 1494 1494 1491 1486 1485 1484 1482 1482 1484 1485 1486 1488 1491 1495 1494 1494 1498 1500 1500 1501 1501 1503 1508 1509 1510 1511 1506 1500 1501 1502 1501 1503 1502 1503 1505 1506 1509 1512 1512 1513 1514 1514 1515 1515 1516 1517 1517 1518 1519 1517 1520 1524 1525 1528 1534 1535 1536 1536 1529 1516 1513 1515 1512 1515 1525 1529 1528 1530 1532 1532 1532 1531 1530 1530 1529 1530 1531 1531
1473 1475 1476 1478 1480 1483 1485 1488 1490 1491 1492 1489 1487 1485 1484 1482 1481 1481 1482 1483 1485 1487 1489 1491 1491 1493 1496 1497 1497 1499 1500 1501 1506 1507 1506 1506 1503 1497 1497 1499 1499 1501 1501 1502 1504 1505 1508 1511 1513 1514 1515 1515 1515 1516 1516 1517 1518 1518 1518 1519 1520 1521 1522 1525 1529 1530 1530 1533 1529 1521 1516 1511 1507 1510 1513 1514 1519 1525 1527 1529 1529 1528 1528 1528 1528 1528 1529 1529
1470 1473 1474 1475 1478 1481 1484 1487 1488 1489 1488 1483 1482 1483 1482 1481 1481 1480 1481 1482 1484 1485 1487 1488 1489 1492 1494 1495 1496 1497 1498 1499 1503 1504 1502 1501 1500 1497 1496 1497 1498 1500 1501 1502 1503 1505 1507 1511 1513 1515 1517 1517 1515 1514 1511 1511 1515 1517 1518 1520 1520 1521 1522 1524 1526 1525 1525 1528 1529 1526 1521 1509 1505 1511 1510 1508 1514 1519 1520 1523 1525 1525 1527 1527 1527 1527 1526 1528
1468 1471 1471 1473 1475 1478 1482 1485 1485 1484 1483 1480 1479 1480 1480 1479 1479 1479 1480 1481 1483 1484 1485 1486 1487 1489 1491 1494 1496 1497 1498 1500 1501 1502 1501 1498 1497 1497 1496 1496 1497 1499 1500 1502 1503 1504 1507 1509 1512 1515 1517 1514 1511 1511 1510 1509 1510 1511 1513 1515 1515 1517 1520 1524 1526 1523 1521 1524 1524 1524 1521 1510 1506 1513 1512 1510 1513 1515 1517 1520 1522 1524 1525 1525 1525 1525 1526 1527
1466 1467 1468 1470 1472 1475 1480 1482 1480 1480 1479 1477 1476 1477 1477 1476 1477 1478 1480 1481 1482 1483 1484 1485 1487 1488 1489 1491 1494 1496 1496 1498 1500 1501 1500 1499 1497 1496 1495 1495 1496 1497 1499 1503 1504 1505 1506 1509 1511 1512 1513 1513 1512 1513 1513 1511 1511 1510 1511 1512 1513 1514 1516 1520 1522 1520 1519 1523 1522 1523 1523 1513 1510 1513 1512 1511 1512 1513 1516 1519 1520 1522 1523 1523 1524 1524 1526 1527
1464 1465 1466 1468 1469 1472 1477 1479 1477 1476 1475 1473 1473 1474 1474 1475 1476 1478 1479 1481 1482 1483 1484 1485 1486 1487 1487 1488 1491 1494 1495 1497 1499 1498 1499 1499 1497 1494 1494 1495 1496 1497 1499 1503 1505 1505 1506 1509 1511 1511 1510 1512 1514 1513 1512 1512 1512 1511 1511 1512 1513 1513 1513 1515 1517 1518 1520 1520 1520 1524 1523 1512 1510 1513 1512 1512 1513 1514 1517 1518 1519 1521 1521 1522 1523 1523 1524 1525
1464 1465 1466 1467 1468 1471 1473 1473 1472 1472 1471 1471 1472 1472 1473 1474 1474 1476 1477 1478 1479 1481 1482 1484 1483 1483 1484 1485 1487 1490 1493 1496 1497 1495 1495 1496 1495 1494 1494 1495 1497 1498 1499 1501 1501 1502 1505 1508 1511 1514 1515 1515 1516 1517 1516 1513 1512 1511 1511 1513 1514 1513 1515 1518 1519 1522 1525 1519 1517 1523 1519 1509 1511 1514 1513 1513 1515 1515 1517 1518 1519 1519 1519 1520 1521 1521 1522 1522
1464 1465 1466 1466 1468 1469 1469 1467 1467 1468 1468 1469 1471 1471 1472 1473 1472 1473 1475 1475 1476 1478 1479 1480 1479 1479 1482 1484 1485 1487 1488 1489 1491 1493 1493 1494 1494 1494 1493 1494 1496 1496 1497 1498 1498 1498 1502 1505 1507 1511 1514 1513 1512 1514 1516 1513 1511 1512 1513 1514 1514 1513 1515 1517 1519 1523 1525 1519 1518 1520 1514 1509 1513 1516 1514 1515 1516 1515 1517 1518 1519 1518 1519 1519 1519 1519 1520 1520
1463 1465 1466 1467 1468 1468 1467 1466 1467 1468 1467 1468 1470 1469 1470 1472 1470 1471 1473 1474 1474 1475 1476 1476 1477 1479 1481 1483 1485 1486 1485 1485 1487 1489 1490 1493 1494 1494 1493 1493 1494 1494 1495 1496 1496 1498 1502 1505 1503 1502 1503 1502 1502 1506 1510 1510 1508 1509 1512 1512 1512 1514 1515 1516 1520 1523 1521 1520 1520 1515 1511 1513 1514 1513 1515 1515 1515 1516 1516 1516 1517 1516 1517 1517 1517 1517 1517 1518
1461 1463 1463 1465 1467 1468 1467 1467 1467 1467 1467 1468 1469 1468 1468 1470 1470 1471 1472 1472 1472 1474 1475 1476 1476 1478 1479 1481 1483 1484 1483 1484 1485 1486 1489 1491 1493 1494 1494 1493 1493 1494 1494 1495 1496 1498 1503 1504 1503 1502 1501 1501 1504 1506 1509 1509 1507 1506 1509 1509 1508 1513 1517 1518 1519 1518 1515 1519 1517 1508 1509 1514 1511 1508 1513 1514 1513 1514 1514 1514 1514 1514 1514 1515 1514 1515 1515 1516
1458 1458 1458 1460 1462 1464 1465 1464 1464 1466 1467 1467 1467 1466 1467 1469 1470 1470 1470 1470 1471 1472 1474 1475 1474 1474 1474 1476 1480 1481 1482 1484 1485 1485 1487 1489 1492 1494 1495 1494 1494 1494 1494 1496 1496 1497 1501 1502 1502 1505 1505 1504 1508 1510 1509 1510 1509 1508 1508 1507 1505 1510 1516 1517 1516 1513 1512 1514 1510 1504 1507 1512 1508 1507 1510 1511 1511 1511 1511 1511 1511 1511 1511 1512 1511 1512 1512 1513
1454 1455 1456 1457 1458 1458 1459 1459 1461 1465 1466 1467 1468 1466 1467 1468 1468 1467 1468 1470 1471 1470 1470 1472 1471 1471 1473 1473 1475 1476 1477 1480 1482 1482 1484 1487 1489 1492 1494 1494 1494 1494 1495 1496 1496 1498 1500 1501 1504 1506 1505 1504 1509 1511 1511 1512 1512 1510 1509 1506 1506 1510 1514 1514 1512 1510 1511 1511 1506 1505 1509 1509 1505 1506 1507 1507 1508 1509 1509 1509 1508 1508 1508 1508 1508 1508 1509 1510
1451 1452 1453 1455 1456 1455 1456 1457 1460 1463 1464 1467 1468 1464 1464 1467 1466 1464 1465 1466 1467 1467 1467 1468 1468 1469 1471 1472 1471 1471 1470 1471 1474 1477 1480 1484 1486 1488 1490 1490 1491 1494 1496 1496 1498 1499 1500 1502 1506 1507 1506 1507 1511 1512 1511 1512 1513 1511 1508 1507 1509 1514 1514 1512 1510 1510 1513 1512 1508 1509 1514 1509 1502 1501 1504 1505 1505 1506 1506 1505 1505 1505 1505 1505 1505 1506 1507 1509
1449 1449 1450 1452 1452 1452 1454 1455 1457 1460 1462 1463 1462 1459 1460 1462 1460 1460 1462 1461 1462 1463 1463 1464 1465 1468 1470 1471 1469 1469 1468 1468 1470 1471 1473 1477 1479 1481 1483 1483 1486 1492 1495 1496 1498 1498 1499 1504 1507 1508 1508 1510 1513 1514 1512 1512 1515 1514 1507 1504 1509 1512 1508 1505 1505 1506 1507 1508 1509 1513 1515 1508 1499 1498 1502 1503 1502 1502 1502 1502 1502 1502 1502 1503 1503 1504 1506 1507
1447 1448 1448 1450 1450 1449 1450 1452 1454 1456 1454 1452 1452 1452 1454 1455 1455 1458 1461 1460 1459 1461 1460 1460 1462 1466 1469 1469 1467 1466 1467 1468 1470 1471 1473 1475 1475 1477 1479 1481 1483 1486 1490 1495 1497 1498 1499 1502 1505 1508 1509 1512 1518 1517 1512 1515 1519 1510 1497 1494 1501 1504 1501 1500 1500 1500 1500 1503 1507 1509 1505 1499 1497 1499 1501 1500 1500 1500 1499 1499 1499 1500 1500 1501 1501 1503 1505 1506